| time (UTC) | temp C | wind direction | speed KPH | gust KPH | rain 1hr cm | rain 24hr cm | rain mn cm | humidity % | barometer mb |
| 20260506014540 | 22 | 342 | 1.6 | 14.5 | 0.00 | 0.00 | 0.00 | 68 | 1006.4 |
| 20260506014030 | 22 | 11 | 3.2 | 14.5 | 0.00 | 0.00 | 0.00 | 68 | 1006.3 |
| 20260506013529 | 22 | 344 | 4.8 | 14.5 | 0.00 | 0.00 | 0.00 | 67 | 1006.0 |
| 20260506013058 | 22 | 22 | 3.2 | 12.9 | 0.00 | 0.00 | 0.00 | 67 | 1006.2 |
| 20260506012531 | 22 | 355 | 3.2 | 12.9 | 0.00 | 0.00 | 0.00 | 66 | 1005.9 |
| 20260506012028 | 23 | 341 | 3.2 | 12.9 | 0.00 | 0.00 | 0.00 | 66 | 1006.1 |
| 20260506011539 | 23 | 260 | 3.2 | 12.9 | 0.00 | 0.00 | 0.00 | 66 | 1006.1 |
| 20260506011029 | 23 | 17 | 4.8 | 9.7 | 0.00 | 0.00 | 0.00 | 67 | 1006.0 |
| 20260506010528 | 23 | 360 | 3.2 | 8.0 | 0.00 | 0.00 | 0.00 | 66 | 1005.9 |
| 20260506010044 | 23 | 342 | 1.6 | 16.1 | 0.00 | 0.00 | 0.00 | 66 | 1005.8 |
| 20260506005530 | 23 | 321 | 3.2 | 16.1 | 0.00 | 0.00 | 0.00 | 66 | 1005.5 |
| 20260506005027 | 23 | 5 | 1.6 | 12.9 | 0.00 | 0.00 | 0.00 | 65 | 1005.1 |
| 20260506004538 | 23 | 295 | 3.2 | 16.1 | 0.00 | 0.00 | 0.00 | 64 | 1005.5 |
| 20260506004031 | 24 | 273 | 3.2 | 16.1 | 0.00 | 0.00 | 0.00 | 64 | 1005.5 |
| 20260506003529 | 24 | 309 | 6.4 | 16.1 | 0.00 | 0.00 | 0.00 | 64 | 1005.4 |
| 20260506003040 | 25 | 292 | 4.8 | 14.5 | 0.00 | 0.00 | 0.00 | 64 | 1005.4 |
| 20260506002528 | 25 | 22 | 3.2 | 14.5 | 0.00 | 0.00 | 0.00 | 63 | 1005.5 |
| 20260506002028 | 25 | 316 | 3.2 | 14.5 | 0.00 | 0.00 | 0.00 | 63 | 1005.5 |
| 20260506001541 | 25 | 327 | 6.4 | 14.5 | 0.00 | 0.00 | 0.00 | 62 | 1005.4 |
| 20260506001028 | 26 | 327 | 6.4 | 14.5 | 0.00 | 0.00 | 0.00 | 61 | 1005.6 |
| 20260506000527 | 26 | 14 | 3.2 | 14.5 | 0.00 | 0.00 | 0.00 | 61 | 1005.4 |
| 20260506000037 | 26 | 346 | 3.2 | 16.1 | 0.00 | 0.00 | 0.00 | 61 | 1005.2 |
| 20260505235530 | 26 | 333 | 4.8 | 19.3 | 0.00 | 0.00 | 0.00 | 60 | 1004.7 |
| 20260505235030 | 27 | 319 | 4.8 | 19.3 | 0.00 | 0.00 | 0.00 | 59 | 1004.7 |
| 20260505234547 | 27 | 302 | 8.0 | 19.3 | 0.00 | 0.00 | 0.00 | 58 | 1004.6 |
| 20260505234030 | 28 | 343 | 3.2 | 20.9 | 0.00 | 0.00 | 0.00 | 57 | 1004.6 |
| 20260505233531 | 28 | 231 | 4.8 | 20.9 | 0.00 | 0.00 | 0.00 | 56 | 1004.8 |
| 20260505233041 | 28 | 24 | 8.0 | 20.9 | 0.00 | 0.00 | 0.00 | 55 | 1004.7 |
| 20260505232527 | 29 | 279 | 4.8 | 14.5 | 0.00 | 0.00 | 0.00 | 53 | 1004.6 |
| 20260505232031 | 30 | 360 | 4.8 | 19.3 | 0.00 | 0.00 | 0.00 | 51 | 1004.4 |
| 20260505231542 | 30 | 327 | 6.4 | 20.9 | 0.00 | 0.00 | 0.00 | 50 | 1004.2 |
| 20260505231032 | 30 | 25 | 4.8 | 20.9 | 0.00 | 0.00 | 0.00 | 48 | 1004.2 |
| 20260505230528 | 30 | 327 | 8.0 | 20.9 | 0.00 | 0.00 | 0.00 | 47 | 1004.0 |
| 20260505230052 | 31 | 321 | 4.8 | 24.1 | 0.00 | 0.00 | 0.00 | 47 | 1004.0 |
| 20260505225528 | 31 | 332 | 8.0 | 24.1 | 0.00 | 0.00 | 0.00 | 47 | 1003.9 |
| 20260505225028 | 31 | 230 | 4.8 | 11.3 | 0.00 | 0.00 | 0.00 | 50 | 1003.5 |
| 20260505224539 | 31 | 159 | 1.6 | 12.9 | 0.00 | 0.00 | 0.00 | 51 | 1003.6 |
| 20260505224031 | 31 | 207 | 4.8 | 12.9 | 0.00 | 0.00 | 0.00 | 50 | 1003.7 |
| 20260505223530 | 31 | 213 | 3.2 | 12.9 | 0.00 | 0.00 | 0.00 | 51 | 1003.8 |
| 20260505223047 | 31 | 200 | 3.2 | 12.9 | 0.00 | 0.00 | 0.00 | 51 | 1003.5 |
| 20260505222531 | 32 | 273 | 1.6 | 12.9 | 0.00 | 0.00 | 0.00 | 51 | 1003.4 |
| 20260505222028 | 31 | 224 | 4.8 | 12.9 | 0.00 | 0.00 | 0.00 | 51 | 1003.3 |
| 20260505221538 | 31 | 167 | 3.2 | 14.5 | 0.00 | 0.00 | 0.00 | 52 | 1003.3 |
| 20260505221027 | 32 | 138 | 4.8 | 14.5 | 0.00 | 0.00 | 0.00 | 51 | 1003.4 |
| 20260505220530 | 32 | 180 | 3.2 | 14.5 | 0.00 | 0.00 | 0.00 | 52 | 1003.4 |
| 20260505220043 | 32 | 245 | 3.2 | 16.1 | 0.00 | 0.00 | 0.00 | 52 | 1003.4 |
| 20260505215528 | 32 | 181 | 4.8 | 16.1 | 0.00 | 0.00 | 0.00 | 52 | 1003.6 |
| 20260505215031 | 31 | 189 | 4.8 | 12.9 | 0.00 | 0.00 | 0.00 | 52 | 1003.6 |
| 20260505214537 | 31 | 138 | 4.8 | 17.7 | 0.00 | 0.00 | 0.00 | 53 | 1003.6 |
| 20260505214030 | 31 | 265 | 3.2 | 17.7 | 0.00 | 0.00 | 0.00 | 53 | 1003.6 |
| 20260505213530 | 31 | 213 | 6.4 | 17.7 | 0.00 | 0.00 | 0.00 | 53 | 1003.7 |
| 20260505213050 | 31 | 207 | 4.8 | 17.7 | 0.00 | 0.00 | 0.00 | 53 | 1003.8 |
| 20260505212533 | 31 | 0 | 4.8 | 24.1 | 0.00 | 0.00 | 0.00 | 54 | 1003.8 |
| 20260505212028 | 31 | 252 | 6.4 | 24.1 | 0.00 | 0.00 | 0.00 | 55 | 1003.8 |
| 20260505211542 | 31 | 240 | 8.0 | 24.1 | 0.00 | 0.00 | 0.00 | 54 | 1003.8 |
| 20260505211028 | 31 | 34 | 11.3 | 24.1 | 0.00 | 0.00 | 0.00 | 55 | 1003.9 |
| 20260505210527 | 31 | 194 | 4.8 | 22.5 | 0.00 | 0.00 | 0.00 | 56 | 1004.0 |
| 20260505210041 | 31 | 171 | 8.0 | 22.5 | 0.00 | 0.00 | 0.00 | 56 | 1003.8 |
| 20260505205528 | 31 | 135 | 6.4 | 20.9 | 0.00 | 0.00 | 0.00 | 58 | 1004.0 |
| 20260505205032 | 31 | 178 | 4.8 | 22.5 | 0.00 | 0.00 | 0.00 | 58 | 1004.1 |
| 20260505204540 | 31 | 219 | 9.7 | 27.4 | 0.00 | 0.00 | 0.00 | 56 | 1004.2 |
| 20260505204033 | 31 | 211 | 8.0 | 27.4 | 0.00 | 0.00 | 0.00 | 57 | 1004.2 |
| 20260505203533 | 31 | 209 | 8.0 | 25.7 | 0.00 | 0.00 | 0.00 | 56 | 1004.3 |
| 20260505203046 | 31 | 235 | 8.0 | 19.3 | 0.00 | 0.00 | 0.00 | 57 | 1004.4 |
| 20260505202529 | 31 | 240 | 6.4 | 19.3 | 0.00 | 0.00 | 0.00 | 58 | 1004.3 |
| 20260505202029 | 31 | 182 | 3.2 | 17.7 | 0.00 | 0.00 | 0.00 | 59 | 1004.4 |
| 20260505201544 | 31 | 208 | 8.0 | 20.9 | 0.00 | 0.00 | 0.00 | 59 | 1004.4 |
| 20260505201029 | 30 | 198 | 6.4 | 20.9 | 0.00 | 0.00 | 0.00 | 59 | 1004.6 |
| 20260505200532 | 30 | 182 | 8.0 | 20.9 | 0.00 | 0.00 | 0.00 | 59 | 1004.5 |
| 20260505200042 | 31 | 173 | 6.4 | 22.5 | 0.00 | 0.00 | 0.00 | 59 | 1004.6 |
| 20260505195531 | 30 | 261 | 4.8 | 25.7 | 0.00 | 0.00 | 0.00 | 59 | 1004.6 |
| 20260505195027 | 30 | 164 | 8.0 | 25.7 | 0.00 | 0.00 | 0.00 | 59 | 1004.6 |
| 20260505194538 | 30 | 230 | 4.8 | 19.3 | 0.00 | 0.00 | 0.00 | 61 | 1004.6 |
| 20260505194031 | 30 | 187 | 6.4 | 20.9 | 0.00 | 0.00 | 0.00 | 60 | 1004.6 |
| 20260505193527 | 30 | 188 | 6.4 | 22.5 | 0.00 | 0.00 | 0.00 | 60 | 1004.9 |
| 20260505193039 | 30 | 224 | 9.7 | 24.1 | 0.00 | 0.00 | 0.00 | 61 | 1004.7 |
| 20260505192529 | 29 | 177 | 8.0 | 24.1 | 0.00 | 0.00 | 0.00 | 62 | 1004.7 |
| 20260505192030 | 29 | 195 | 9.7 | 24.1 | 0.00 | 0.00 | 0.00 | 62 | 1004.6 |
| 20260505191537 | 29 | 202 | 6.4 | 22.5 | 0.00 | 0.00 | 0.00 | 63 | 1004.6 |
| 20260505191033 | 28 | 178 | 6.4 | 24.1 | 0.00 | 0.00 | 0.00 | 63 | 1004.7 |
| 20260505190532 | 28 | 178 | 8.0 | 27.4 | 0.00 | 0.00 | 0.00 | 64 | 1004.7 |
| 20260505190035 | 28 | 173 | 9.7 | 27.4 | 0.00 | 0.00 | 0.00 | 64 | 1004.7 |
| 20260505185533 | 28 | 199 | 8.0 | 24.1 | 0.00 | 0.00 | 0.00 | 66 | 1004.8 |
| 20260505185031 | 28 | 281 | 8.0 | 25.7 | 0.00 | 0.00 | 0.00 | 65 | 1004.8 |
| 20260505184541 | 28 | 188 | 8.0 | 25.7 | 0.00 | 0.00 | 0.00 | 65 | 1004.9 |
| 20260505184027 | 28 | 214 | 11.3 | 24.1 | 0.00 | 0.00 | 0.00 | 65 | 1005.0 |
| 20260505183527 | 28 | 168 | 8.0 | 24.1 | 0.00 | 0.00 | 0.00 | 65 | 1005.0 |
| 20260505183044 | 28 | 121 | 8.0 | 19.3 | 0.00 | 0.00 | 0.00 | 65 | 1004.9 |
| 20260505182531 | 28 | 261 | 9.7 | 27.4 | 0.00 | 0.00 | 0.00 | 66 | 1004.8 |
| 20260505182033 | 28 | 146 | 4.8 | 27.4 | 0.00 | 0.00 | 0.00 | 66 | 1005.0 |
| 20260505181540 | 28 | 221 | 9.7 | 24.1 | 0.00 | 0.00 | 0.00 | 66 | 1004.9 |
| 20260505181030 | 28 | 242 | 6.4 | 24.1 | 0.00 | 0.00 | 0.00 | 67 | 1005.0 |
| 20260505180531 | 28 | 151 | 9.7 | 22.5 | 0.00 | 0.00 | 0.00 | 66 | 1005.0 |
| 20260505180038 | 28 | 185 | 8.0 | 20.9 | 0.00 | 0.00 | 0.00 | 66 | 1005.0 |
| 20260505175531 | 27 | 204 | 11.3 | 22.5 | 0.00 | 0.00 | 0.00 | 66 | 1004.8 |
| 20260505175031 | 27 | 142 | 6.4 | 22.5 | 0.00 | 0.00 | 0.00 | 67 | 1004.9 |
| 20260505174548 | 27 | 208 | 8.0 | 20.9 | 0.00 | 0.00 | 0.00 | 67 | 1004.9 |
| 20260505174030 | 27 | 198 | 6.4 | 33.8 | 0.00 | 0.00 | 0.00 | 68 | 1004.9 |
| 20260505173531 | 27 | 201 | 12.9 | 33.8 | 0.00 | 0.00 | 0.00 | 68 | 1004.9 |
| 20260505173047 | 27 | 186 | 8.0 | 22.5 | 0.00 | 0.00 | 0.00 | 68 | 1005.0 |
| 20260505172530 | 26 | 196 | 9.7 | 25.7 | 0.00 | 0.00 | 0.00 | 69 | 1005.0 |
| 20260505172031 | 26 | 207 | 9.7 | 25.7 | 0.00 | 0.00 | 0.00 | 69 | 1005.1 |
| 20260505171540 | 26 | 218 | 9.7 | 25.7 | 0.00 | 0.00 | 0.00 | 70 | 1005.1 |
| 20260505171034 | 26 | 187 | 9.7 | 25.7 | 0.00 | 0.00 | 0.00 | 70 | 1005.1 |
| 20260505170531 | 26 | 202 | 11.3 | 30.6 | 0.00 | 0.00 | 0.00 | 70 | 1005.3 |
| 20260505170040 | 26 | 291 | 12.9 | 30.6 | 0.00 | 0.00 | 0.00 | 70 | 1005.2 |
| 20260505165531 | 26 | 182 | 12.9 | 29.0 | 0.00 | 0.00 | 0.00 | 69 | 1005.3 |
| 20260505165031 | 26 | 180 | 6.4 | 29.0 | 0.00 | 0.00 | 0.00 | 70 | 1005.1 |
| 20260505164556 | 26 | 217 | 9.7 | 32.2 | 0.00 | 0.00 | 0.00 | 70 | 1005.1 |
| 20260505164031 | 26 | 211 | 14.5 | 32.2 | 0.00 | 0.00 | 0.00 | 70 | 1005.0 |
| 20260505163528 | 26 | 180 | 11.3 | 29.0 | 0.00 | 0.00 | 0.00 | 69 | 1005.1 |
| 20260505163045 | 26 | 195 | 6.4 | 30.6 | 0.00 | 0.00 | 0.00 | 70 | 1005.1 |
| 20260505162530 | 26 | 5 | 11.3 | 30.6 | 0.00 | 0.00 | 0.00 | 70 | 1004.8 |
| 20260505162031 | 26 | 267 | 8.0 | 30.6 | 0.00 | 0.00 | 0.00 | 71 | 1005.0 |
| 20260505161542 | 26 | 155 | 11.3 | 35.4 | 0.00 | 0.00 | 0.00 | 71 | 1004.7 |
| 20260505161030 | 25 | 192 | 9.7 | 35.4 | 0.00 | 0.00 | 0.00 | 71 | 1005.0 |
| 20260505160528 | 25 | 196 | 9.7 | 32.2 | 0.00 | 0.00 | 0.00 | 71 | 1004.9 |
| 20260505153053 | 25 | 155 | 14.5 | 37.0 | 0.00 | 0.00 | 0.00 | 73 | 1004.8 |
| 20260505152531 | 25 | 204 | 11.3 | 32.2 | 0.00 | 0.00 | 0.00 | 73 | 1004.7 |
| 20260505152030 | 24 | 227 | 11.3 | 32.2 | 0.00 | 0.00 | 0.00 | 74 | 1004.7 |
| 20260505151548 | 24 | 181 | 14.5 | 33.8 | 0.00 | 0.00 | 0.00 | 75 | 1004.9 |
| 20260505151031 | 23 | 202 | 12.9 | 37.0 | 0.00 | 0.00 | 0.00 | 75 | 1005.0 |
| 20260505150531 | 23 | 180 | 12.9 | 37.0 | 0.00 | 0.00 | 0.00 | 75 | 1004.9 |
| 20260505140530 | 22 | 177 | 8.0 | 33.8 | 0.00 | 0.00 | 0.00 | 79 | 1005.0 |
| 20260505125030 | 21 | 193 | 12.9 | 30.6 | 0.00 | 0.00 | 0.00 | 81 | 1004.3 |
| 20260505124540 | 21 | 150 | 6.4 | 29.0 | 0.00 | 0.00 | 0.00 | 81 | 1004.2 |
| 20260505124029 | 21 | 180 | 9.7 | 29.0 | 0.00 | 0.00 | 0.00 | 81 | 1004.3 |
| 20260505123528 | 21 | 186 | 9.7 | 27.4 | 0.00 | 0.00 | 0.00 | 81 | 1004.3 |
| 20260505123038 | 21 | 164 | 8.0 | 27.4 | 0.00 | 0.00 | 0.00 | 81 | 1004.0 |
| 20260505122528 | 21 | 192 | 9.7 | 25.7 | 0.00 | 0.00 | 0.00 | 81 | 1003.8 |
| 20260505122028 | 21 | 196 | 8.0 | 27.4 | 0.00 | 0.00 | 0.00 | 81 | 1003.8 |
| 20260505121538 | 21 | 236 | 11.3 | 30.6 | 0.00 | 0.00 | 0.00 | 81 | 1003.9 |
| 20260505121029 | 21 | 219 | 11.3 | 30.6 | 0.00 | 0.00 | 0.00 | 81 | 1003.9 |
| 20260505120528 | 21 | 190 | 8.0 | 30.6 | 0.00 | 0.00 | 0.00 | 81 | 1003.8 |
| 20260505120042 | 21 | 180 | 11.3 | 30.6 | 0.00 | 0.00 | 0.00 | 81 | 1003.9 |
| 20260505115529 | 21 | 242 | 12.9 | 30.6 | 0.00 | 0.00 | 0.00 | 81 | 1003.8 |
| 20260505115033 | 21 | 169 | 9.7 | 22.5 | 0.00 | 0.00 | 0.00 | 81 | 1003.7 |
| 20260505114544 | 21 | 133 | 8.0 | 29.0 | 0.00 | 0.00 | 0.00 | 81 | 1003.6 |
| 20260505114030 | 21 | 193 | 8.0 | 29.0 | 0.00 | 0.00 | 0.00 | 81 | 1003.6 |
| 20260505113532 | 21 | 195 | 6.4 | 27.4 | 0.00 | 0.00 | 0.00 | 81 | 1003.7 |
| 20260505113037 | 21 | 175 | 8.0 | 32.2 | 0.00 | 0.00 | 0.00 | 81 | 1003.7 |
| 20260505112529 | 21 | 185 | 9.7 | 32.2 | 0.00 | 0.00 | 0.00 | 81 | 1003.5 |
| 20260505112028 | 21 | 177 | 11.3 | 27.4 | 0.00 | 0.00 | 0.00 | 81 | 1003.7 |
| 20260505111551 | 21 | 0 | 8.0 | 22.5 | 0.00 | 0.00 | 0.00 | 81 | 1003.7 |
| 20260505111029 | 21 | 209 | 9.7 | 22.5 | 0.00 | 0.00 | 0.00 | 81 | 1003.7 |
| 20260505110529 | 21 | 211 | 8.0 | 19.3 | 0.00 | 0.00 | 0.00 | 81 | 1003.5 |
| 20260505102030 | 21 | 219 | 6.4 | 25.7 | 0.00 | 0.00 | 0.00 | 81 | 1003.8 |
| 20260505101542 | 21 | 174 | 8.0 | 25.7 | 0.00 | 0.00 | 0.00 | 81 | 1003.7 |
| 20260505101030 | 21 | 209 | 8.0 | 22.5 | 0.00 | 0.00 | 0.00 | 81 | 1003.7 |
| 20260505100533 | 21 | 196 | 8.0 | 24.1 | 0.00 | 0.00 | 0.00 | 81 | 1003.8 |
| 20260505100050 | 21 | 197 | 9.7 | 24.1 | 0.00 | 0.00 | 0.00 | 81 | 1003.8 |
| 20260505095533 | 21 | 175 | 8.0 | 20.9 | 0.00 | 0.00 | 0.00 | 81 | 1003.6 |
| 20260505095030 | 21 | 194 | 8.0 | 24.1 | 0.00 | 0.00 | 0.00 | 81 | 1003.7 |
| 20260505094542 | 21 | 192 | 9.7 | 24.1 | 0.00 | 0.00 | 0.00 | 81 | 1003.9 |
| 20260505094029 | 21 | 242 | 9.7 | 24.1 | 0.00 | 0.00 | 0.00 | 81 | 1003.8 |
| 20260505093530 | 21 | 144 | 11.3 | 24.1 | 0.00 | 0.00 | 0.00 | 81 | 1004.0 |
| 20260505093042 | 21 | 165 | 9.7 | 30.6 | 0.00 | 0.00 | 0.00 | 81 | 1003.9 |
| 20260505092530 | 21 | 149 | 9.7 | 30.6 | 0.00 | 0.00 | 0.00 | 81 | 1003.9 |
| 20260505092031 | 21 | 200 | 11.3 | 30.6 | 0.00 | 0.00 | 0.00 | 81 | 1004.0 |
| 20260505091552 | 21 | 157 | 9.7 | 33.8 | 0.00 | 0.00 | 0.00 | 81 | 1003.9 |
| 20260505091031 | 21 | 148 | 8.0 | 33.8 | 0.00 | 0.00 | 0.00 | 81 | 1004.0 |
| 20260505090530 | 21 | 161 | 9.7 | 30.6 | 0.00 | 0.00 | 0.00 | 81 | 1004.2 |
| 20260505090052 | 21 | 207 | 8.0 | 30.6 | 0.00 | 0.00 | 0.00 | 81 | 1004.1 |
| 20260505085534 | 21 | 200 | 8.0 | 30.6 | 0.00 | 0.00 | 0.00 | 81 | 1004.2 |
| 20260505085030 | 21 | 184 | 9.7 | 30.6 | 0.00 | 0.00 | 0.00 | 81 | 1004.2 |
| 20260505084539 | 21 | 186 | 8.0 | 17.7 | 0.00 | 0.00 | 0.00 | 81 | 1004.2 |
| 20260505084030 | 21 | 167 | 6.4 | 25.7 | 0.00 | 0.00 | 0.00 | 81 | 1004.1 |
| 20260505083529 | 21 | 153 | 9.7 | 25.7 | 0.00 | 0.00 | 0.00 | 81 | 1004.2 |
| 20260505083044 | 21 | 220 | 6.4 | 20.9 | 0.00 | 0.00 | 0.00 | 81 | 1004.0 |
| 20260505082530 | 21 | 177 | 8.0 | 22.5 | 0.00 | 0.00 | 0.00 | 80 | 1004.0 |
| 20260505082032 | 21 | 233 | 8.0 | 22.5 | 0.00 | 0.00 | 0.00 | 80 | 1004.1 |
| 20260505081555 | 21 | 184 | 4.8 | 27.4 | 0.00 | 0.00 | 0.00 | 80 | 1004.3 |
| 20260505081031 | 21 | 196 | 11.3 | 27.4 | 0.00 | 0.00 | 0.00 | 80 | 1004.3 |
| 20260505080532 | 21 | 208 | 8.0 | 33.8 | 0.00 | 0.00 | 0.00 | 80 | 1004.3 |
| 20260505080047 | 21 | 144 | 8.0 | 35.4 | 0.00 | 0.00 | 0.00 | 79 | 1004.3 |
| 20260505075530 | 21 | 155 | 8.0 | 35.4 | 0.00 | 0.00 | 0.00 | 79 | 1004.4 |
| 20260505075029 | 21 | 180 | 6.4 | 22.5 | 0.00 | 0.00 | 0.00 | 79 | 1004.3 |
| 20260505074554 | 21 | 191 | 3.2 | 24.1 | 0.00 | 0.00 | 0.00 | 78 | 1004.5 |
| 20260505074031 | 21 | 198 | 11.3 | 24.1 | 0.00 | 0.00 | 0.00 | 79 | 1004.6 |
| 20260505073531 | 21 | 163 | 8.0 | 25.7 | 0.00 | 0.00 | 0.00 | 78 | 1004.6 |
| 20260505073040 | 22 | 188 | 6.4 | 25.7 | 0.00 | 0.00 | 0.00 | 78 | 1004.7 |
| 20260505072530 | 22 | 202 | 12.9 | 25.7 | 0.00 | 0.00 | 0.00 | 78 | 1004.8 |
| 20260505072028 | 22 | 197 | 9.7 | 25.7 | 0.00 | 0.00 | 0.00 | 78 | 1005.0 |
| 20260505071535 | 22 | 190 | 8.0 | 25.7 | 0.00 | 0.00 | 0.00 | 77 | 1005.1 |
| 20260505071031 | 22 | 200 | 9.7 | 24.1 | 0.00 | 0.00 | 0.00 | 77 | 1005.1 |
| 20260505070531 | 22 | 185 | 8.0 | 27.4 | 0.00 | 0.00 | 0.00 | 77 | 1005.2 |
| 20260505070046 | 22 | 190 | 8.0 | 27.4 | 0.00 | 0.00 | 0.00 | 77 | 1005.2 |
| 20260505065532 | 22 | 170 | 11.3 | 27.4 | 0.00 | 0.00 | 0.00 | 77 | 1005.1 |
| 20260505065030 | 22 | 207 | 9.7 | 20.9 | 0.00 | 0.00 | 0.00 | 77 | 1005.3 |
| 20260505064542 | 22 | 141 | 8.0 | 25.7 | 0.00 | 0.00 | 0.00 | 77 | 1005.4 |
| 20260505064029 | 22 | 189 | 9.7 | 25.7 | 0.00 | 0.00 | 0.00 | 77 | 1005.4 |
| 20260505063529 | 22 | 190 | 9.7 | 17.7 | 0.00 | 0.00 | 0.00 | 77 | 1005.5 |
| 20260505063043 | 22 | 195 | 8.0 | 24.1 | 0.00 | 0.00 | 0.00 | 76 | 1005.4 |
| 20260505062531 | 22 | 207 | 8.0 | 25.7 | 0.00 | 0.00 | 0.00 | 76 | 1005.4 |
| 20260505062030 | 22 | 150 | 6.4 | 25.7 | 0.00 | 0.00 | 0.00 | 76 | 1005.4 |
| 20260505061557 | 22 | 204 | 8.0 | 22.5 | 0.00 | 0.00 | 0.00 | 76 | 1005.2 |
| 20260505061029 | 22 | 217 | 6.4 | 24.1 | 0.00 | 0.00 | 0.00 | 76 | 1005.3 |
| 20260505060528 | 22 | 207 | 9.7 | 24.1 | 0.00 | 0.00 | 0.00 | 76 | 1005.4 |
| 20260505060051 | 22 | 123 | 8.0 | 24.1 | 0.00 | 0.00 | 0.00 | 76 | 1005.3 |
| 20260505055530 | 22 | 230 | 9.7 | 24.1 | 0.00 | 0.00 | 0.00 | 76 | 1005.3 |
| 20260505055033 | 22 | 164 | 8.0 | 24.1 | 0.00 | 0.00 | 0.00 | 75 | 1005.3 |
| 20260505054555 | 22 | 124 | 4.8 | 20.9 | 0.00 | 0.00 | 0.00 | 75 | 1005.5 |
| 20260505054034 | 22 | 211 | 8.0 | 27.4 | 0.00 | 0.00 | 0.00 | 75 | 1005.6 |
| 20260505053531 | 22 | 188 | 11.3 | 27.4 | 0.00 | 0.00 | 0.00 | 75 | 1005.5 |
| 20260505053044 | 22 | 144 | 8.0 | 20.9 | 0.00 | 0.00 | 0.00 | 75 | 1005.7 |
| 20260505052529 | 22 | 165 | 6.4 | 22.5 | 0.00 | 0.00 | 0.00 | 75 | 1005.8 |
| 20260505052030 | 22 | 144 | 9.7 | 22.5 | 0.00 | 0.00 | 0.00 | 75 | 1005.8 |
| 20260505051536 | 22 | 179 | 8.0 | 24.1 | 0.00 | 0.00 | 0.00 | 74 | 1005.7 |
| 20260505051030 | 22 | 209 | 9.7 | 24.1 | 0.00 | 0.00 | 0.00 | 74 | 1005.7 |
| 20260505050530 | 22 | 179 | 4.8 | 19.3 | 0.00 | 0.00 | 0.00 | 74 | 1005.8 |
| 20260505041539 | 22 | 197 | 9.7 | 19.3 | 0.00 | 0.00 | 0.00 | 72 | 1005.9 |
| 20260505041031 | 22 | 200 | 6.4 | 19.3 | 0.00 | 0.00 | 0.00 | 72 | 1006.2 |
| 20260505040530 | 23 | 195 | 6.4 | 19.3 | 0.00 | 0.00 | 0.00 | 72 | 1006.1 |
| 20260505040041 | 23 | 182 | 8.0 | 19.3 | 0.00 | 0.00 | 0.00 | 72 | 1006.2 |
| 20260505035530 | 23 | 191 | 8.0 | 22.5 | 0.00 | 0.00 | 0.00 | 71 | 1006.2 |
| 20260505035029 | 23 | 174 | 6.4 | 22.5 | 0.00 | 0.00 | 0.00 | 71 | 1005.9 |
| 20260505034538 | 23 | 199 | 8.0 | 19.3 | 0.00 | 0.00 | 0.00 | 71 | 1006.0 |
| 20260505034031 | 23 | 191 | 6.4 | 19.3 | 0.00 | 0.00 | 0.00 | 71 | 1005.9 |
| 20260505033533 | 23 | 219 | 8.0 | 19.3 | 0.00 | 0.00 | 0.00 | 71 | 1005.9 |
| 20260505033049 | 23 | 136 | 4.8 | 16.1 | 0.00 | 0.00 | 0.00 | 71 | 1005.8 |
| 20260505032531 | 23 | 168 | 6.4 | 29.0 | 0.00 | 0.00 | 0.00 | 70 | 1006.0 |
| 20260505032031 | 23 | 209 | 8.0 | 29.0 | 0.00 | 0.00 | 0.00 | 70 | 1006.0 |
| 20260505031538 | 23 | 167 | 9.7 | 20.9 | 0.00 | 0.00 | 0.00 | 70 | 1006.0 |
| 20260505031028 | 23 | 199 | 8.0 | 30.6 | 0.00 | 0.00 | 0.00 | 70 | 1006.0 |
| 20260505030528 | 23 | 170 | 6.4 | 30.6 | 0.00 | 0.00 | 0.00 | 70 | 1006.0 |
| 20260505030040 | 23 | 183 | 4.8 | 16.1 | 0.00 | 0.00 | 0.00 | 70 | 1006.0 |
| 20260505025534 | 23 | 188 | 6.4 | 22.5 | 0.00 | 0.00 | 0.00 | 70 | 1006.1 |
| 20260505025027 | 23 | 178 | 6.4 | 22.5 | 0.00 | 0.00 | 0.00 | 70 | 1006.1 |
| 20260505024604 | 23 | 229 | 6.4 | 22.5 | 0.00 | 0.00 | 0.00 | 70 | 1006.1 |
| 20260505024028 | 23 | 169 | 6.4 | 22.5 | 0.00 | 0.00 | 0.00 | 69 | 1006.1 |
| 20260505023531 | 23 | 180 | 4.8 | 24.1 | 0.00 | 0.00 | 0.00 | 69 | 1006.1 |
| 20260505023043 | 23 | 217 | 6.4 | 25.7 | 0.00 | 0.00 | 0.00 | 69 | 1006.1 |
| 20260505022531 | 23 | 186 | 4.8 | 25.7 | 0.00 | 0.00 | 0.00 | 69 | 1005.9 |
| 20260505022031 | 23 | 206 | 4.8 | 20.9 | 0.00 | 0.00 | 0.00 | 69 | 1005.9 |
| 20260505021601 | 23 | 177 | 6.4 | 20.9 | 0.00 | 0.00 | 0.00 | 69 | 1006.0 |
| 20260505021030 | 23 | 165 | 8.0 | 16.1 | 0.00 | 0.00 | 0.00 | 69 | 1005.9 |
| 20260505020530 | 23 | 217 | 4.8 | 16.1 | 0.00 | 0.00 | 0.00 | 68 | 1006.0 |
| 20260505020046 | 23 | 223 | 6.4 | 19.3 | 0.00 | 0.00 | 0.00 | 68 | 1005.9 |
| 20260505015531 | 23 | 172 | 8.0 | 19.3 | 0.00 | 0.00 | 0.00 | 68 | 1006.0 |
| 20260505015030 | 23 | 123 | 6.4 | 20.9 | 0.00 | 0.00 | 0.00 | 67 | 1006.0 |